SAS431 ESGG-EKCH

Flight info

Callsign SAS431
Flight time 0h 32m
Altitude 19000
Route TOPLA L996 ERNOV
Aircraft A320/M-SDE3FGHIRWY/LB1

Departure

Time 2026-05-04 12:57
Airport Göteborg Landvetter Airport (ESGG)

Arrival

Time 2026-05-04 13:29
Airport Copenhagen Kastrup Airport (EKCH)
Time Latitude Longitude Altitude Speed Heading
2026-05-04 12:35 57.66933 12.29465 517 ft 0 kts 116°
2026-05-04 12:48 57.66934 12.29458 516 ft 2 kts 116°
2026-05-04 12:48 57.66942 12.29431 516 ft 2 kts 120°
2026-05-04 12:48 57.66950 12.29405 516 ft 2 kts 125°
2026-05-04 12:48 57.66960 12.29381 516 ft 2 kts 135°
2026-05-04 12:49 57.66973 12.29362 516 ft 2 kts 165°
2026-05-04 12:49 57.66989 12.29360 516 ft 2 kts 201°
2026-05-04 12:49 57.66996 12.29365 516 ft 0 kts 205°
2026-05-04 12:49 57.66995 12.29364 516 ft 1 kts 205°
2026-05-04 12:50 57.66986 12.29357 516 ft 2 kts 205°
2026-05-04 12:52 57.66984 12.29355 516 ft 1 kts 205°
2026-05-04 12:52 57.66978 12.29337 516 ft 1 kts 257°
2026-05-04 12:52 57.66984 12.29308 516 ft 4 kts 292°
2026-05-04 12:52 57.66998 12.29247 516 ft 6 kts 296°
2026-05-04 12:53 57.67038 12.29190 516 ft 8 kts 357°
2026-05-04 12:53 57.67098 12.29235 516 ft 10 kts 27°
2026-05-04 12:53 57.67167 12.29300 516 ft 12 kts 27°
2026-05-04 12:53 57.67248 12.29377 516 ft 14 kts 27°
2026-05-04 12:54 57.67325 12.29447 516 ft 0 kts 24°
2026-05-04 12:54 57.67332 12.29451 516 ft 2 kts 21°
2026-05-04 12:54 57.67349 12.29465 516 ft 4 kts 22°
2026-05-04 12:54 57.67382 12.29485 516 ft 6 kts
2026-05-04 12:55 57.67419 12.29442 516 ft 8 kts 309°
2026-05-04 12:55 57.67448 12.29338 516 ft 10 kts 296°
2026-05-04 12:55 57.67460 12.29191 515 ft 13 kts 266°
2026-05-04 12:55 57.67423 12.29027 515 ft 14 kts 238°
2026-05-04 12:56 57.67342 12.28957 515 ft 14 kts 208°
2026-05-04 12:56 57.67141 12.28759 514 ft 64 kts 206°
2026-05-04 12:56 57.66555 12.28210 512 ft 120 kts 208°
2026-05-04 12:56 57.65688 12.27383 672 ft 145 kts 213°
2026-05-04 12:57 57.64838 12.26559 1394 ft 140 kts 213°
2026-05-04 12:57 57.63949 12.25712 1897 ft 146 kts 214°
2026-05-04 12:57 57.63028 12.24773 2160 ft 164 kts 213°
2026-05-04 12:57 57.61973 12.23747 2572 ft 178 kts 211°
2026-05-04 12:58 57.60740 12.22773 2705 ft 213 kts 200°
2026-05-04 12:58 57.59177 12.22401 3165 ft 236 kts 187°
2026-05-04 12:58 57.57445 12.22338 3635 ft 262 kts 185°
2026-05-04 12:58 57.55588 12.22296 4428 ft 272 kts 184°
2026-05-04 12:59 57.53693 12.22489 5308 ft 279 kts 179°
2026-05-04 12:59 57.51765 12.23063 6260 ft 284 kts 172°
2026-05-04 12:59 57.49843 12.23960 7181 ft 285 kts 172°
2026-05-04 12:59 57.47911 12.24716 8109 ft 284 kts 175°
2026-05-04 13:00 57.45959 12.25320 8984 ft 285 kts 178°
2026-05-04 13:00 57.43996 12.25849 9841 ft 288 kts 179°
2026-05-04 13:00 57.41964 12.26359 10270 ft 306 kts 178°
2026-05-04 13:00 57.39777 12.26892 10482 ft 328 kts 178°
2026-05-04 13:01 57.37476 12.27473 11000 ft 338 kts 178°
2026-05-04 13:01 57.35134 12.28090 11690 ft 342 kts 178°
2026-05-04 13:01 57.32797 12.28718 12375 ft 346 kts 178°
2026-05-04 13:01 57.30403 12.29367 13054 ft 350 kts 178°
2026-05-04 13:02 57.28004 12.30018 13737 ft 353 kts 178°
2026-05-04 13:02 57.25559 12.30680 14357 ft 357 kts 178°
2026-05-04 13:02 57.23096 12.31345 14965 ft 360 kts 178°
2026-05-04 13:02 57.20598 12.32018 15581 ft 363 kts 178°
2026-05-04 13:03 57.18903 12.32474 15994 ft 365 kts 178°
2026-05-04 13:03 57.15556 12.33368 16797 ft 369 kts 179°
2026-05-04 13:03 57.13002 12.34041 17416 ft 373 kts 179°
2026-05-04 13:03 57.10428 12.34699 18030 ft 376 kts 179°
2026-05-04 13:04 57.07824 12.35344 18584 ft 379 kts 179°
2026-05-04 13:04 57.05203 12.35986 18817 ft 381 kts 179°
2026-05-04 13:04 57.02551 12.36632 18872 ft 388 kts 179°
2026-05-04 13:04 56.99857 12.37288 18877 ft 392 kts 179°
2026-05-04 13:05 56.97150 12.37956 18887 ft 393 kts 179°
2026-05-04 13:05 56.94440 12.38630 18890 ft 393 kts 179°
2026-05-04 13:05 56.92643 12.39076 18887 ft 393 kts 179°
2026-05-04 13:05 56.89928 12.39748 18892 ft 393 kts 179°
2026-05-04 13:06 56.87220 12.40418 18893 ft 393 kts 178°
2026-05-04 13:06 56.84513 12.41087 18901 ft 393 kts 179°
2026-05-04 13:06 56.81805 12.41753 18905 ft 392 kts 179°
2026-05-04 13:06 56.79099 12.42419 18905 ft 392 kts 179°
2026-05-04 13:07 56.76392 12.43081 18910 ft 393 kts 179°
2026-05-04 13:07 56.73683 12.43741 18894 ft 393 kts 179°
2026-05-04 13:07 56.70977 12.44396 18903 ft 393 kts 179°
2026-05-04 13:07 56.68281 12.45049 18909 ft 393 kts 179°
2026-05-04 13:08 56.65577 12.45709 18872 ft 390 kts 178°
2026-05-04 13:08 56.62925 12.46364 18620 ft 379 kts 179°
2026-05-04 13:08 56.60343 12.47008 18382 ft 369 kts 179°
2026-05-04 13:08 56.57830 12.47631 18044 ft 361 kts 179°
2026-05-04 13:09 56.55347 12.48232 17557 ft 358 kts 179°
2026-05-04 13:09 56.52890 12.48817 17086 ft 355 kts 179°
2026-05-04 13:09 56.50453 12.49397 16609 ft 352 kts 179°
2026-05-04 13:09 56.48038 12.49975 16112 ft 349 kts 179°
2026-05-04 13:10 56.45642 12.50548 15668 ft 346 kts 179°
2026-05-04 13:10 56.43267 12.51115 15208 ft 343 kts 179°
2026-05-04 13:10 56.40902 12.51681 14739 ft 341 kts 179°
2026-05-04 13:10 56.38553 12.52244 14270 ft 340 kts 179°
2026-05-04 13:11 56.36221 12.52798 13804 ft 338 kts 179°
2026-05-04 13:11 56.33893 12.53346 13298 ft 336 kts 179°
2026-05-04 13:11 56.31612 12.53884 12837 ft 334 kts 178°
2026-05-04 13:11 56.29332 12.54427 12382 ft 331 kts 178°
2026-05-04 13:12 56.27027 12.54976 11916 ft 329 kts 178°
2026-05-04 13:12 56.24792 12.55509 11469 ft 327 kts 178°
2026-05-04 13:12 56.22551 12.56043 11194 ft 320 kts 178°
2026-05-04 13:12 56.20388 12.56562 11072 ft 308 kts 178°
2026-05-04 13:13 56.18297 12.57057 10915 ft 298 kts 180°
2026-05-04 13:13 56.16282 12.57011 10716 ft 284 kts 194°
2026-05-04 13:13 56.14384 12.56212 10628 ft 280 kts 200°
2026-05-04 13:13 56.12504 12.55318 10457 ft 279 kts 200°
2026-05-04 13:14 56.10631 12.54441 10272 ft 279 kts 200°
2026-05-04 13:14 56.08751 12.53565 10073 ft 279 kts 200°
2026-05-04 13:14 56.06874 12.52690 9878 ft 278 kts 200°
2026-05-04 13:14 56.05010 12.51819 9720 ft 273 kts 200°
2026-05-04 13:15 56.03180 12.50966 9884 ft 276 kts 200°
2026-05-04 13:15 56.01310 12.50090 9917 ft 278 kts 200°
2026-05-04 13:15 55.99442 12.49222 9925 ft 279 kts 200°
2026-05-04 13:15 55.97563 12.48349 9925 ft 279 kts 200°
2026-05-04 13:16 55.95694 12.47479 9928 ft 278 kts 200°
2026-05-04 13:16 55.93821 12.46605 9913 ft 278 kts 199°
2026-05-04 13:16 55.91961 12.45732 9806 ft 274 kts 200°
2026-05-04 13:16 55.90126 12.44865 9463 ft 273 kts 200°
2026-05-04 13:17 55.88293 12.43998 9110 ft 272 kts 200°
2026-05-04 13:17 55.86464 12.43131 8769 ft 271 kts 200°
2026-05-04 13:17 55.84641 12.42272 8429 ft 271 kts 200°
2026-05-04 13:17 55.82824 12.41416 8097 ft 269 kts 200°
2026-05-04 13:18 55.81022 12.40568 7924 ft 268 kts 200°
2026-05-04 13:18 55.79214 12.39742 7866 ft 269 kts 195°
2026-05-04 13:18 55.77318 12.39718 7522 ft 278 kts 173°
2026-05-04 13:18 55.75511 12.41014 7187 ft 286 kts 150°
2026-05-04 13:19 55.74082 12.43513 6854 ft 292 kts 129°
2026-05-04 13:19 55.72931 12.46493 6510 ft 295 kts 121°
2026-05-04 13:19 55.72227 12.49900 6195 ft 296 kts 101°
2026-05-04 13:19 55.72166 12.53533 5845 ft 295 kts 81°
2026-05-04 13:20 55.72746 12.56988 5511 ft 291 kts 62°
2026-05-04 13:20 55.73653 12.60171 5291 ft 285 kts 60°
2026-05-04 13:20 55.74581 12.63203 5161 ft 274 kts 52°
2026-05-04 13:20 55.75779 12.65732 5026 ft 261 kts 38°
2026-05-04 13:21 55.77117 12.67820 4864 ft 253 kts 36°
2026-05-04 13:21 55.78426 12.69861 4609 ft 249 kts 37°
2026-05-04 13:21 55.79722 12.71875 4313 ft 246 kts 37°
2026-05-04 13:21 55.81007 12.73856 4011 ft 245 kts 36°
2026-05-04 13:22 55.82291 12.75831 3732 ft 243 kts 38°
2026-05-04 13:22 55.83282 12.78243 3486 ft 245 kts 69°
2026-05-04 13:22 55.83436 12.81178 3355 ft 237 kts 98°
2026-05-04 13:22 55.83101 12.83999 3205 ft 230 kts 104°
2026-05-04 13:23 55.82691 12.86729 3028 ft 227 kts 109°
2026-05-04 13:23 55.81881 12.89065 2987 ft 223 kts 140°
2026-05-04 13:23 55.80591 12.90504 2997 ft 217 kts 166°
2026-05-04 13:23 55.79131 12.90882 2998 ft 211 kts 190°
2026-05-04 13:24 55.77763 12.90226 3002 ft 204 kts 213°
2026-05-04 13:24 55.76645 12.88752 3005 ft 199 kts 226°
2026-05-04 13:24 55.75606 12.87119 2995 ft 197 kts 226°
2026-05-04 13:25 55.73599 12.83979 2950 ft 191 kts 227°
2026-05-04 13:25 55.72617 12.82443 2701 ft 189 kts 226°
2026-05-04 13:25 55.71628 12.80899 2448 ft 188 kts 226°
2026-05-04 13:25 55.70658 12.79388 2199 ft 181 kts 225°
2026-05-04 13:26 55.69720 12.77929 1955 ft 177 kts 227°
2026-05-04 13:26 55.68802 12.76503 1720 ft 174 kts 225°
2026-05-04 13:26 55.67928 12.75140 1489 ft 162 kts 226°
2026-05-04 13:26 55.67127 12.73913 1331 ft 143 kts 226°
2026-05-04 13:27 55.66387 12.72819 1121 ft 136 kts 226°
2026-05-04 13:27 55.65675 12.71736 854 ft 136 kts 229°
2026-05-04 13:27 55.64997 12.70629 699 ft 130 kts 228°
2026-05-04 13:27 55.64317 12.69560 489 ft 131 kts 223°
2026-05-04 13:28 55.63608 12.68517 356 ft 134 kts 229°
2026-05-04 13:28 55.62959 12.67373 174 ft 131 kts 222°
2026-05-04 13:28 55.62258 12.66393 70 ft 128 kts 227°
2026-05-04 13:28 55.61623 12.65347 27 ft 114 kts 225°
2026-05-04 13:29 55.61108 12.64544 17 ft 82 kts 223°
2026-05-04 13:29 55.60798 12.64060 21 ft 35 kts 221°
2026-05-04 13:29 55.60694 12.63883 19 ft 19 kts 238°
2026-05-04 13:29 55.60724 12.63710 17 ft 17 kts 312°
2026-05-04 13:30 55.60750 12.63659 17 ft 0 kts 311°
2026-05-04 13:30 55.60765 12.63629 17 ft 7 kts 311°
2026-05-04 13:30 55.60824 12.63590 17 ft 13 kts 11°
2026-05-04 13:31 55.60914 12.63696 17 ft 19 kts 31°
2026-05-04 13:31 55.61042 12.63840 18 ft 25 kts 33°
2026-05-04 13:31 55.61203 12.64021 17 ft 31 kts 32°
2026-05-04 13:31 55.61402 12.64252 17 ft 37 kts 33°
2026-05-04 13:32 55.61617 12.64499 17 ft 27 kts 34°
2026-05-04 13:32 55.61793 12.64700 17 ft 33 kts 32°
2026-05-04 13:32 55.61998 12.64939 17 ft 38 kts 33°
2026-05-04 13:32 55.62111 12.65069 18 ft 2 kts 35°
2026-05-04 13:33 55.62119 12.65078 19 ft 3 kts 35°
2026-05-04 13:34 55.62142 12.65107 17 ft 6 kts 35°
2026-05-04 13:34 55.62181 12.65153 18 ft 8 kts 31°
2026-05-04 13:34 55.62239 12.65197 17 ft 10 kts
2026-05-04 13:34 55.62316 12.65204 20 ft 12 kts
2026-05-04 13:35 55.62410 12.65201 17 ft 15 kts 359°
2026-05-04 13:35 55.62587 12.65196 17 ft 4 kts 358°
2026-05-04 13:35 55.62620 12.65196 17 ft 6 kts
2026-05-04 13:36 55.62651 12.65250 17 ft 8 kts 71°
2026-05-04 13:36 55.62663 12.65352 19 ft 9 kts 51°
2026-05-04 13:36 55.62703 12.65397 18 ft 3 kts 28°
2026-05-04 13:36 55.62704 12.65398 18 ft 0 kts 28°